Temperature
20 20 20 20 20 20 19 19 19 19 19 19 19 19 19 19 19 19 19 19 19 19 19 19 19 19 19 19 19 19 19 19 19 19 19 19 19 19 18 18 18 18 18
20 20 20 20 20 20 19 19 19 19 19 19 19 19 19 19 19 19 19 19 19 19 19 19 19 19 19 19 19 19 19 19 19 19 19 19 19 19 18 18 18 18 18
21 21 20 20 20 19 19 19 19 19 19 19 19 19 19 19 18 18 18 18 19 19 19 19 19 19 19 19 19 19 19 19 19 19 18 18 18 18 18 18 18 18 18
21 20 20 20 20 19 19 19 19 19 19 19 19 19 19 19 19 18 18 18 18 18 19 19 19 19 19 19 19 19 19 18 18 18 18 18 18 18 18 18 18 18 18
20 20 20 20 20 19 19 19 19 19 19 19 19 19 19 19 19 19 18 18 18 18 18 19 18 18 18 18 18 18 18 18 18 18 18 18 18 18 18 18 18 18 18
20 20 21 20 20 19 19 19 19 19 19 19 19 19 19 19 19 19 18 18 18 18 18 18 18 18 18 18 18 18 18 18 18 18 18 18 18 18 18 18 18 18 18
21 20 20 20 20 19 19 19 19 19 19 19 19 19 19 19 19 19 19 18 18 18 18 18 18 18 18 19 18 18 18 18 18 18 18 18 18 18 18 18 18 18 18
21 20 20 20 20 19 19 19 19 19 19 19 19 19 19 19 19 19 19 19 18 18 19 18 18 18 18 18 19 19 19 19 18 18 18 18 18 18 18 18 18 18 18
21 21 20 20 20 19 19 19 19 19 19 19 19 19 19 19 19 19 19 19 19 18 18 18 18 18 19 19 19 19 19 19 18 18 18 18 18 18 18 18 18 18 18
22 21 20 20 20 19 19 19 19 19 19 19 19 19 19 19 19 19 19 19 19 19 18 18 18 18 19 19 19 19 19 19 19 19 18 18 18 18 18 18 18 18 18
22 21 20 20 19 19 19 19 19 19 19 19 19 19 19 18 18 18 18 18 18 18 18 18 18 18 18 19 19 19 19 19 19 18 18 18 19 19 18 18 18 18 18
22 21 20 20 20 19 19 19 19 19 19 19 19 19 18 18 18 18 18 18 18 18 18 18 18 18 18 18 18 18 19 19 19 18 18 19 19 19 18 18 18 18 18
21 21 21 20 20 20 19 19 19 19 18 18 18 18 18 18 18 18 18 18 18 18 18 18 18 18 18 18 18 18 18 18 18 18 19 19 19 18 18 18 18 18 18
21 21 20 20 20 19 19 19 19 19 18 18 18 18 18 18 18 18 18 18 18 18 18 18 18 18 18 18 18 18 18 18 19 18 19 18 18 18 18 18 18 18 18
21 21 20 20 20 19 19 19 19 19 19 18 18 18 18 18 18 18 18 18 18 18 18 18 18 18 18 18 18 18 18 18 18 18 18 18 18 18 18 18 18 18 18
21 20 20 20 19 19 19 19 19 19 18 18 18 18 18 18 18 18 18 18 18 18 18 18 18 18 18 18 18 18 18 18 18 18 18 18 18 18 18 18 18 18 18
21 20 20 20 19 19 19 19 18 18 18 18 18 18 18 18 18 18 18 18 18 18 18 18 18 18 18 18 18 18 18 18 18 18 18 18 18 18 18 18 18 18 18
20 20 20 20 19 19 19 19 18 18 18 18 18 18 18 18 18 18 18 18 18 18 18 18 18 18 18 18 18 18 18 18 18 18 18 18 18 18 18 18 18 18 18
20 20 20 19 19 19 19 19 19 18 18 18 18 18 18 18 18 18 18 18 18 18 18 18 18 18 18 18 18 18 18 18 18 18 18 18 18 18 18 18 18 18 18
20 20 20 19 19 19 18 18 18 18 18 18 18 18 18 17 17 18 17 18 18 17 18 18 18 18 18 18 18 18 18 18 18 18 18 18 18 18 18 18 17 17 17
20 20 19 19 19 19 18 18 18 18 18 18 18 18 18 17 17 17 17 17 17 17 17 17 17 18 18 18 18 18 18 18 18 18 18 18 18 18 17 17 17 17 17
20 20 19 19 19 19 18 18 18 18 18 18 18 18 18 17 17 17 17 17 17 17 17 17 17 17 17 17 18 18 18 18 18 18 18 18 18 18 17 17 17 17 17
21 20 19 19 19 19 18 18 18 18 18 18 18 18 18 17 17 17 17 17 17 17 17 17 17 17 17 17 17 17 17 18 18 18 18 18 18 18 17 17 17 17 17
21 20 20 19 19 19 19 18 18 18 18 18 18 18 18 17 17 17 17 17 17 17 17 17 17 17 17 17 17 17 17 17 17 17 18 18 18 17 17 17 17 17 17
21 21 20 20 19 19 19 19 18 18 18 18 18 18 18 17 17 17 17 17 17 17 17 17 17 17 17 17 17 17 17 17 17 17 17 17 17 17 17 17 17 17 17
22 21 20 20 20 19 19 19 18 18 18 18 18 18 18 17 17 17 17 17 17 16 16 16 16 16 16 17 17 17 17 17 17 17 17 17 17 17 17 17 17 17 17
Wind_Speed
11 12 13 12 12 12 12 13 13 13 13 12 12 12 12 11 11 11 11 11 11 10 10 9 9 8 8 8 8 8 9 9 8 9 9 9 8 8 7 7 7 9 12
13 14 15 13 13 13 13 13 13 13 12 12 11 11 11 11 10 10 10 9 9 9 9 8 9 8 8 8 7 7 7 7 7 7 8 7 7 6 6 6 7 9 11
14 14 15 14 13 13 13 12 12 12 11 11 11 10 10 10 10 9 9 9 8 8 8 8 8 8 7 7 7 7 6 6 6 6 7 6 7 7 8 7 8 10 10
15 15 15 15 14 13 12 12 12 11 11 10 10 9 9 9 9 9 8 8 7 7 7 7 7 7 6 6 5 6 6 5 6 6 6 6 6 8 9 8 8 9 10
16 16 17 16 14 13 12 12 11 11 10 9 9 8 8 8 8 7 7 7 7 7 6 6 6 6 5 5 4 5 5 6 7 7 4 4 6 9 9 9 8 9 9
15 17 17 16 15 13 12 12 11 10 9 8 8 7 7 7 6 6 6 6 6 6 6 6 5 5 5 5 5 5 6 6 7 7 6 6 7 9 9 9 8 9 9
14 16 17 16 15 13 12 11 10 9 9 8 7 6 6 6 5 5 5 5 6 6 5 5 5 5 5 6 6 7 7 7 9 6 4 6 8 10 10 9 9 9 9
14 15 16 16 15 14 12 11 9 8 8 7 6 6 6 6 5 5 5 5 5 5 5 5 5 5 5 6 7 8 8 9 8 5 5 8 11 11 10 9 9 10 10
13 13 14 14 13 13 12 11 9 8 7 6 5 6 6 6 6 6 6 5 5 5 5 5 6 6 6 7 8 9 9 10 9 6 4 8 12 12 10 9 9 10 10
11 12 11 12 12 11 10 11 10 9 7 6 5 5 6 6 6 7 6 6 6 6 6 6 6 7 7 8 9 10 10 10 10 7 4 8 13 12 11 10 9 10 10
9 9 9 10 9 9 10 10 10 9 7 6 5 5 6 5 5 6 6 7 7 7 7 7 8 9 9 10 11 11 10 8 7 5 5 11 14 13 12 11 10 10 11
8 8 8 8 7 7 7 8 7 7 7 6 5 5 5 3 3 3 6 8 8 8 7 8 9 9 9 9 11 12 9 10 8 5 7 15 14 13 12 12 11 10 11
8 7 8 8 6 5 5 5 4 5 6 5 3 3 2 1 2 3 4 5 6 7 6 7 7 7 8 6 6 8 9 7 5 3 9 15 15 14 13 12 12 11 11
7 7 7 7 6 5 4 3 3 2 3 3 4 2 2 0 0 1 1 2 3 4 4 3 4 5 4 4 5 6 6 5 3 4 9 14 15 14 14 13 12 12 11
7 6 7 7 7 5 4 2 2 2 2 3 4 3 1 1 0 1 1 0 1 2 2 2 3 3 2 3 4 4 4 3 3 3 7 12 13 13 13 13 13 12 12
7 6 6 7 7 5 3 1 1 1 2 3 4 3 1 1 1 1 1 1 1 2 3 3 3 3 3 3 4 3 3 4 3 3 7 11 13 13 13 13 13 12 12
7 6 5 7 7 4 3 1 1 1 2 2 3 3 1 0 1 0 1 1 1 3 3 2 2 2 3 3 3 3 3 3 3 3 4 7 9 12 13 13 13 13 12
7 6 4 5 6 4 3 1 1 1 1 1 2 3 1 0 0 1 1 1 2 2 2 1 1 2 2 2 2 3 2 3 4 4 4 6 7 8 11 12 12 12 12
8 7 5 4 6 4 3 2 0 1 2 2 2 2 2 0 1 1 1 1 2 1 1 2 0 1 2 2 3 3 3 3 4 5 5 6 7 7 8 11 13 13 12
9 7 6 4 4 4 3 2 1 1 1 1 2 1 1 0 0 1 1 1 2 1 1 2 2 1 2 2 3 2 2 3 3 3 4 4 6 8 9 9 11 11 11
9 7 6 5 4 3 2 2 2 1 1 1 1 2 1 0 0 1 2 1 1 1 1 2 2 2 1 1 2 2 2 3 3 3 3 2 4 6 8 8 9 9 9
9 8 7 5 5 3 2 1 1 1 1 2 1 1 1 1 1 0 1 2 1 0 2 2 1 2 2 1 1 1 1 1 2 3 3 3 3 2 4 7 8 9 8
9 9 7 5 5 4 3 2 1 1 0 1 2 1 1 1 1 1 1 2 2 1 1 1 1 1 1 1 1 1 1 1 1 1 1 2 2 2 2 3 6 7 9
10 10 8 7 5 4 3 3 3 2 2 1 2 1 2 1 0 1 1 1 2 2 1 1 0 1 1 2 1 1 1 0 0 1 1 0 1 3 3 3 3 5 7
11 10 9 7 6 5 4 3 2 1 1 1 1 1 2 1 1 0 0 1 1 1 1 2 1 1 0 1 2 1 1 1 1 1 1 1 1 1 2 2 1 3 6
10 10 10 8 6 5 4 3 2 2 1 0 0 1 1 1 1 0 0 1 1 1 1 1 1 1 1 1 2 3 1 1 1 1 1 2 2 2 2 2 2 2 4
Wind_Direction
104 110 114 109 109 108 107 106 106 108 110 112 113 113 114 114 114 113 114 118 123 125 129 130 129 126 121 114 110 108 109 112 116 112 114 114 115 120 123 125 124 113 114
110 113 114 110 109 105 104 104 106 107 109 109 111 114 114 114 115 116 117 119 123 126 126 130 133 132 129 124 122 120 123 127 131 131 133 132 129 133 137 125 114 117 121
110 116 115 111 109 107 104 104 104 105 109 112 111 113 118 119 119 122 123 124 125 126 127 129 132 133 132 131 134 134 138 145 154 158 162 161 148 144 138 128 125 127 129
112 117 115 115 112 111 108 105 104 106 109 114 114 117 121 122 124 127 128 129 129 129 130 130 130 134 133 137 147 152 157 173 184 192 191 181 157 144 143 142 142 140 140
113 115 118 121 118 116 114 111 108 107 108 112 115 118 122 123 127 131 133 135 134 134 136 137 138 139 141 149 165 178 186 201 212 225 211 152 129 141 144 149 154 152 152
113 117 123 125 124 122 120 119 117 114 112 114 118 121 126 129 128 133 139 140 143 143 145 147 151 155 161 168 187 206 218 229 234 229 198 165 147 152 155 157 161 162 160
113 119 128 130 130 129 127 126 124 122 123 127 131 134 136 137 140 143 150 149 148 151 153 160 165 172 182 191 204 220 233 246 247 236 190 163 150 158 162 165 169 167 166
113 118 128 132 133 134 133 133 132 130 130 134 140 147 149 149 156 160 163 162 161 164 170 179 184 189 197 207 216 228 241 254 248 233 188 155 154 158 166 170 173 174 172
116 121 129 132 134 137 138 138 138 140 140 141 145 154 164 170 174 175 174 173 177 182 188 195 202 206 213 221 227 234 242 252 267 250 207 157 161 165 169 174 180 179 178
115 122 129 134 136 140 140 145 145 146 147 148 148 159 173 179 183 186 184 186 191 195 198 205 213 218 222 229 235 241 244 251 251 242 178 161 166 169 173 179 184 184 184
111 118 124 129 134 141 142 144 150 151 154 158 167 176 179 186 184 188 187 185 194 203 207 214 222 226 229 231 235 238 243 246 241 230 163 160 168 174 180 185 189 190 191
115 116 119 122 127 136 132 136 150 149 155 172 169 180 192 200 186 174 173 186 197 208 216 223 228 229 232 231 226 224 234 236 232 222 168 164 169 179 184 187 189 192 196
117 112 116 115 114 113 108 134 138 142 145 157 144 153 164 181 164 156 166 184 202 209 219 219 222 227 225 223 214 209 228 236 227 193 160 167 170 179 186 189 191 196 198
118 110 108 115 108 91 90 100 99 112 129 131 135 129 132 127 322 160 181 177 194 201 207 213 222 227 227 216 210 217 226 228 233 146 161 168 172 180 187 191 196 198 200
119 117 114 113 105 97 77 53 91 86 102 113 117 127 90 64 359 12 35 64 253 235 196 220 238 236 234 228 223 220 225 231 235 181 165 171 176 180 186 192 198 201 202
119 112 111 114 110 109 107 85 62 76 81 87 102 112 122 56 31 9 354 307 303 272 239 232 233 219 219 224 229 225 229 231 229 189 168 179 184 185 188 193 197 201 204
118 117 126 129 118 115 124 159 119 77 80 88 93 104 108 109 64 352 275 256 282 270 259 242 247 236 227 225 217 213 214 221 226 213 187 174 184 193 196 198 200 203 207
129 123 125 127 125 130 132 153 109 114 102 97 113 118 121 3 38 328 298 314 298 285 301 251 265 251 240 234 216 219 213 195 202 200 199 193 187 189 198 199 203 204 206
135 134 134 119 126 140 137 136 145 105 91 95 95 92 127 162 295 290 328 329 300 302 306 299 308 270 271 264 227 206 211 202 203 210 203 196 185 178 181 193 203 206 207
136 134 134 124 119 135 137 153 185 148 125 105 100 86 111 161 287 312 341 336 316 330 337 324 303 264 263 267 271 227 214 211 206 209 218 197 184 187 187 184 191 202 204
141 140 141 140 132 137 145 174 182 186 175 146 133 141 142 215 326 357 337 330 332 350 323 319 314 294 264 267 290 278 243 221 202 206 214 203 190 185 177 179 185 190 196
148 148 149 152 147 155 154 168 183 171 171 157 125 134 153 155 278 290 294 300 338 340 317 304 301 310 300 219 225 289 270 233 240 218 195 200 201 188 177 184 188 187 186
155 158 158 152 152 155 155 159 157 139 184 135 160 170 169 181 211 311 350 335 327 303 269 269 283 294 301 294 225 197 244 255 287 247 217 186 187 184 190 174 177 175 180
160 158 150 150 151 151 168 169 175 182 185 186 189 181 156 166 248 307 345 325 323 325 328 298 102 298 308 299 279 219 220 155 235 284 301 252 204 190 199 196 174 168 170
163 158 151 148 153 157 174 164 189 192 194 172 157 155 173 168 217 298 8 322 314 315 344 344 8 347 354 306 296 296 245 231 243 230 253 249 263 220 191 194 169 161 166
160 155 150 148 153 162 172 167 196 190 172 16 187 141 207 173 177 228 151 326 314 331 346 312 308 309 321 311 308 308 294 270 239 247 255 240 236 249 226 186 183 172 181
Height
1505 1504 1504 1505 1505 1506 1507 1509 1511 1512 1514 1516 1518 1520 1522 1524 1526 1528 1529 1531 1532 1534 1535 1537 1538 1540 1541 1542 1543 1545 1546 1547 1548 1549 1551 1552 1553 1554 1555 1555 1556 1557 1558
1505 1505 1506 1506 1507 1508 1510 1511 1513 1514 1516 1518 1520 1522 1524 1526 1527 1529 1530 1532 1533 1535 1536 1537 1539 1540 1542 1543 1544 1545 1547 1548 1549 1550 1551 1552 1553 1554 1555 1556 1557 1558 1559
1506 1506 1507 1508 1509 1510 1512 1513 1515 1516 1518 1520 1522 1524 1525 1527 1528 1530 1532 1533 1534 1536 1537 1538 1540 1541 1542 1544 1545 1546 1547 1548 1549 1551 1552 1552 1553 1555 1555 1556 1558 1559 1559
1507 1508 1509 1510 1511 1512 1514 1515 1517 1518 1520 1522 1523 1525 1527 1528 1530 1531 1532 1534 1535 1536 1537 1539 1540 1541 1543 1544 1545 1547 1548 1549 1550 1551 1552 1553 1554 1555 1556 1556 1558 1559 1560
1509 1510 1510 1511 1513 1514 1515 1517 1518 1520 1522 1523 1525 1526 1528 1529 1530 1532 1533 1534 1536 1537 1538 1539 1540 1542 1543 1544 1545 1547 1548 1549 1550 1551 1553 1554 1554 1555 1556 1556 1558 1559 1560
1511 1511 1512 1513 1514 1516 1517 1518 1520 1522 1523 1525 1526 1527 1529 1530 1531 1532 1534 1535 1536 1537 1538 1539 1541 1542 1543 1544 1545 1547 1548 1549 1550 1552 1553 1553 1554 1555 1555 1556 1558 1559 1560
1513 1513 1514 1515 1516 1517 1519 1520 1522 1523 1524 1525 1527 1528 1529 1530 1532 1533 1534 1535 1536 1538 1539 1540 1541 1542 1543 1544 1545 1546 1548 1549 1550 1551 1552 1553 1554 1554 1555 1556 1557 1558 1559
1514 1515 1515 1517 1518 1519 1520 1522 1523 1524 1525 1526 1527 1528 1529 1531 1532 1533 1534 1535 1536 1538 1538 1540 1540 1541 1542 1543 1544 1546 1547 1548 1550 1551 1551 1552 1553 1553 1554 1555 1556 1558 1559
1516 1516 1517 1518 1519 1520 1521 1523 1524 1525 1526 1527 1527 1528 1529 1531 1532 1533 1534 1535 1536 1537 1538 1539 1540 1541 1542 1543 1544 1545 1546 1547 1548 1549 1550 1550 1552 1553 1554 1555 1556 1557 1558
1518 1518 1519 1520 1521 1521 1523 1524 1525 1526 1527 1527 1528 1528 1529 1531 1532 1533 1534 1535 1536 1537 1537 1538 1539 1540 1541 1542 1543 1544 1545 1546 1547 1548 1549 1549 1550 1552 1552 1553 1555 1556 1557
1519 1520 1521 1522 1522 1523 1524 1525 1526 1527 1527 1528 1528 1529 1529 1531 1532 1533 1534 1535 1535 1536 1537 1537 1538 1539 1540 1541 1542 1543 1544 1545 1546 1547 1548 1548 1549 1550 1551 1552 1553 1554 1556
1520 1521 1522 1523 1523 1525 1526 1526 1527 1528 1528 1529 1529 1529 1530 1531 1532 1533 1534 1534 1535 1535 1536 1536 1537 1538 1538 1539 1541 1542 1543 1544 1545 1546 1546 1547 1548 1549 1550 1551 1552 1553 1554
1521 1522 1522 1523 1524 1525 1526 1527 1528 1529 1529 1529 1530 1530 1531 1532 1532 1533 1533 1533 1534 1534 1535 1535 1536 1536 1537 1538 1539 1540 1541 1543 1544 1544 1544 1545 1546 1547 1548 1549 1550 1551 1553
1521 1522 1523 1524 1524 1526 1527 1528 1529 1530 1530 1530 1530 1530 1531 1532 1532 1532 1533 1533 1533 1533 1533 1534 1534 1535 1536 1537 1538 1538 1540 1541 1542 1542 1543 1543 1544 1545 1546 1547 1548 1549 1551
1521 1522 1523 1524 1524 1525 1527 1528 1530 1530 1531 1530 1530 1530 1530 1531 1532 1532 1532 1532 1533 1533 1533 1533 1533 1534 1535 1535 1536 1538 1538 1540 1540 1541 1541 1542 1542 1543 1544 1545 1546 1547 1549
1521 1522 1522 1523 1524 1525 1526 1528 1529 1530 1531 1531 1530 1530 1530 1531 1531 1531 1531 1531 1532 1532 1532 1532 1532 1533 1533 1534 1535 1536 1537 1538 1539 1539 1539 1540 1540 1541 1542 1543 1544 1545 1546
1520 1522 1522 1523 1524 1525 1526 1527 1529 1529 1530 1530 1530 1530 1530 1530 1530 1530 1530 1530 1531 1531 1531 1531 1531 1531 1532 1532 1533 1534 1535 1535 1536 1537 1537 1538 1538 1539 1539 1540 1542 1543 1544
1520 1521 1522 1524 1524 1525 1526 1527 1529 1529 1530 1530 1530 1529 1529 1529 1529 1529 1529 1530 1530 1530 1530 1530 1529 1530 1530 1531 1531 1532 1533 1534 1534 1535 1535 1536 1536 1537 1537 1538 1539 1540 1541
1519 1521 1522 1523 1524 1525 1526 1527 1528 1529 1529 1529 1530 1529 1528 1529 1529 1529 1529 1529 1529 1529 1528 1528 1528 1528 1528 1529 1530 1530 1531 1532 1532 1533 1534 1534 1534 1535 1535 1536 1537 1538 1539
1519 1520 1521 1523 1523 1524 1525 1526 1527 1528 1528 1529 1529 1528 1528 1528 1528 1528 1528 1528 1528 1528 1527 1527 1526 1527 1527 1528 1528 1529 1529 1530 1530 1531 1532 1533 1533 1533 1534 1534 1535 1535 1537
1518 1519 1520 1522 1523 1524 1524 1526 1527 1527 1528 1528 1528 1528 1528 1528 1528 1527 1527 1527 1527 1526 1526 1526 1525 1526 1526 1527 1527 1528 1528 1529 1529 1529 1530 1531 1531 1532 1532 1532 1533 1533 1534
1517 1518 1519 1520 1522 1523 1524 1525 1526 1527 1527 1527 1527 1527 1527 1527 1527 1527 1526 1526 1526 1525 1525 1524 1524 1524 1525 1526 1526 1526 1527 1528 1527 1528 1528 1529 1530 1531 1531 1531 1532 1532 1532
1516 1517 1519 1520 1521 1522 1523 1524 1525 1526 1527 1527 1527 1527 1527 1526 1526 1526 1525 1525 1525 1524 1524 1523 1523 1523 1524 1524 1524 1525 1526 1526 1526 1527 1527 1527 1528 1529 1529 1529 1529 1530 1530
1515 1516 1518 1519 1520 1521 1522 1523 1524 1525 1526 1526 1526 1526 1526 1526 1525 1525 1525 1524 1524 1523 1523 1523 1522 1522 1522 1523 1523 1524 1525 1524 1525 1525 1526 1526 1527 1527 1527 1528 1528 1528 1529
1514 1515 1516 1518 1519 1520 1521 1522 1524 1524 1525 1525 1525 1525 1525 1525 1525 1524 1524 1523 1523 1522 1522 1521 1521 1521 1521 1521 1522 1522 1523 1523 1523 1524 1524 1525 1525 1525 1526 1526 1527 1527 1527
1512 1514 1515 1517 1518 1519 1520 1521 1522 1523 1524 1524 1524 1524 1525 1524 1524 1524 1523 1522 1522 1521 1521 1521 1520 1520 1520 1520 1520 1521 1521 1521 1521 1522 1522 1522 1523 1523 1524 1524 1524 1525 1524